This demonstration page uses our WeatherBlox Daily Observations layout. Learn more.

Left ArrowRight Arrow

30.21309, -93.2044

Hourly Observations for July 16, 2022

Temp ( °F °C ) Dew Point ( °F °C ) Humidity (%) Winds ( mph kmh ) Pressure ( in mb ) Visibility ( mi km ) Precip ( " mm )
12:15 am 00:15 Clear 77 24.9 74 23.1 90 90 SSE 5 7 30.05 1018 10 16 0.00 0.00
12:35 am 00:35 Clear 77 24.8 74 23.3 91 91 SSE 3 6 30.05 1018 10 16 0.00 0.00
12:55 am 00:55 Clear 77 25 74 23.4 91 91 Calm 30.05 1018 10 16 0.00 0.00
1:15 am 01:15 Clear 78 25.4 74 23.6 90 90 Calm 30.05 1018 10 16 0.00 0.00
1:35 am 01:35 Clear 76 24.4 74 23.2 93 93 Calm 30.04 1017 10 16 0.00 0.00
1:55 am 01:55 Clear 76 24.5 74 23.4 94 94 Calm 30.04 1017 10 16 0.00 0.00
2:15 am 02:15 Clear 76 24.5 74 23.2 92 92 Calm 30.03 1017 10 16 0.00 0.00
2:35 am 02:35 Clear 76 24.2 74 23.2 94 94 Calm 30.03 1017 10 16 0.00 0.00
2:55 am 02:55 Clear 77 24.8 74 23.4 92 92 Calm 30.03 1017 10 16 0.00 0.00
3:15 am 03:15 Clear 77 24.8 74 23.4 92 92 Calm 30.03 1017 10 16 0.00 0.00
3:35 am 03:35 Clear 78 25.7 74 23.6 88 88 SW 3 6 30.02 1017 10 16 0.00 0.00
3:55 am 03:55 Clear 78 25.4 74 23.1 87 87 Calm 30.02 1017 10 16 0.00 0.00
4:15 am 04:15 Clear 75 24 73 22.7 92 92 Calm 30.03 1017 10 16 0.00 0.00
4:35 am 04:35 Clear 74 23.6 73 22.5 94 94 S 3 6 30.02 1017 10 16 0.00 0.00
4:55 am 04:55 Clear 78 25.8 74 23.4 87 87 SW 3 6 30.03 1017 10 16 0.00 0.00
5:15 am 05:15 Clear 77 24.8 73 22.8 89 89 Calm 30.03 1017 10 16 0.00 0.00
5:35 am 05:35 Clear 76 24.3 73 23 92 92 Calm 30.04 1017 10 16 0.00 0.00
6:00 am 06:00 Mostly Clear 75 24 73 23 94 94 Calm 30.04 1017 10 16 0.00 0.00
6:51 am 06:51 Mostly Sunny 75 24 73 23 94 94 Calm 30.06 1018 10 16 0.00 0.00
7:58 am 07:58 Mostly Sunny 79 26 75 24 89 89 Calm 30.08 1019 10 16 0.00 0.00
8:57 am 08:57 Mostly Sunny 82 28 75 24 79 79 Calm 30.09 1019 10 16 0.00 0.00
9:50 am 09:50 Partly Cloudy 84 29 75 24 74 74 Calm 30.08 1019 10 16 0.00 0.00
10:51 am 10:51 Partly Cloudy 88 31 73 23 62 62 Calm 30.07 1018 10 16 0.00 0.00
11:52 am 11:52 Partly Cloudy 88 31 72 22 59 59 WNW 7 11 30.06 1018 10 16 0.00 0.00
12:54 pm 12:54 Partly Cloudy 90 32 72 22 55 55 NW 7 11 30.04 1017 10 16 0.00 0.00
1:49 pm 13:49 Partly Cloudy 91 33 72 22 52 52 WNW 9 15 30.02 1017 10 16 0.00 0.00
3:48 pm 15:48 Mostly Cloudy 93 34 72 22 49 49 S 6 9 29.98 1015 10 16 0.00 0.00
4:52 pm 16:52 Partly Cloudy 90 32 73 23 59 59 SSW 8 13 29.97 1015 10 16 0.00 0.00
5:45 pm 17:45 Partly Cloudy 90 32 73 23 59 59 SW 12 19 29.97 1015 10 16 0.00 0.00
6:55 pm 18:55 Mostly Sunny 90 32 75 24 63 63 SSW 10 17 29.96 1015 10 16 0.00 0.00
7:53 pm 19:53 Mostly Sunny 88 31 73 23 62 62 SSW 10 17 29.95 1014 10 16 0.00 0.00
8:55 pm 20:55 Mostly Clear 84 29 75 24 74 74 SSW 6 9 29.96 1015 10 16 0.00 0.00
9:55 pm 21:55 Mostly Clear 84 29 75 24 74 74 SW 6 9 29.97 1015 10 16 0.00 0.00
10:15 pm 22:15 Clear 83 28.6 75 23.7 75 75 SW 7 11 29.97 1015 10 16 0.00 0.00
10:35 pm 22:35 Clear 83 28.6 75 23.8 75 75 SW 6 9 29.98 1015 10 16 0.00 0.00
10:55 pm 22:55 Clear 84 28.7 75 23.9 75 75 SW 6 9 29.98 1015 10 16 0.00 0.00
11:15 pm 23:15 Clear 84 28.7 75 23.8 75 75 SW 5 7 29.98 1015 10 16 0.00 0.00
11:35 pm 23:35 Clear 84 28.7 75 23.8 75 75 SW 6 9 29.97 1015 10 16 0.00 0.00
11:55 pm 23:55 Clear 83 28.5 75 23.7 75 75 WSW 6 9 29.98 1015 10 16 0.00 0.00

Powered by AerisWeather